Location: Fort Wayne
(41.1310°N, 85.1290°W)
Time: 17:32:48
(UTC-04:00)

SR - Visible Passes

Search period start: 28 March 2017 00:00
Search period end: 07 April 2017 00:00
Orbit: 574 x 884 km, 66.7° (Epoch: 27 March)

Date Brightness Start Highest point End Pass type
(mag) Time Alt. Az. Time Alt. Az. Time Alt. Az.
28 Mar ? 21:26:17 10° NNW 21:31:25 29° NE 21:33:24 24° E visible
28 Mar ? 23:08:07 10° NW 23:12:50 47° W 23:12:50 47° W visible
29 Mar ? 20:37:28 10° N 20:41:27 18° NE 20:45:23 10° E visible
29 Mar ? 22:18:33 10° NNW 22:24:32 84° ENE 22:25:06 73° SE visible
30 Mar ? 00:02:46 10° WNW 00:04:33 14° W 00:04:33 14° W visible
30 Mar ? 21:29:13 10° NNW 21:34:59 47° NE 21:37:26 30° ESE visible
30 Mar ? 23:11:54 10° NW 23:16:51 29° WSW 23:16:52 29° WSW visible
31 Mar ? 20:40:09 10° N 20:45:13 28° NE 20:49:48 11° ESE visible
31 Mar ? 22:21:56 10° NW 22:27:43 55° WSW 22:29:16 42° SSW visible
01 Apr ? 21:32:22 10° NNW 21:38:21 81° ENE 21:41:43 26° SE visible
01 Apr ? 23:16:26 10° WNW 23:19:41 15° WSW 23:21:11 14° WSW visible
02 Apr ? 20:43:05 10° NNW 20:48:47 45° NE 20:54:14 10° SE visible
02 Apr ? 22:25:40 10° NW 22:30:42 30° WSW 22:33:43 19° SSW visible
03 Apr ? 21:35:45 10° NW 21:41:33 57° WSW 21:46:20 14° S visible
04 Apr ? 20:46:12 10° NNW 20:52:10 78° ENE 20:57:49 10° SE visible
04 Apr ? 22:30:08 10° WNW 22:33:32 16° WSW 22:36:50 10° SW visible
05 Apr ? 21:39:26 10° NW 21:44:33 31° WSW 21:49:25 10° S visible
06 Apr ? 20:49:33 10° NW 20:55:22 60° WSW 21:00:52 10° SSE visible
